Simultaneous Nadir Overpasses (SNOs) Predictions

Prediction of SNOs between AURA and NPP Satellite Orbit:

Table of predicted SNOs for the next 14.0 days since TLE Epoch: 2/22/2020
Index Date (AURA) Time (AURA) Lat,Lon (AURA) SZA (AURA ) Date (NPP) Time (NPP) Lat,Lon (NPP) SZA (NPP ) Distance(km) Time Diff (sec)
1 02/24/2020 03:41:33 79.66, 22.69 102.25 02/24/2020 03:41:01 79.67, 22.81 102.25 2.48 32
2 02/24/2020 04:30:56 -79.81,-168.52 78.00 02/24/2020 04:31:42 -79.80,-168.65 78.01 2.58 46
3 02/26/2020 19:58:03 79.68, 138.70 101.23 02/26/2020 19:57:57 79.67, 138.59 101.25 2.39 6
4 02/26/2020 20:47:24 -79.90, -51.94 79.13 02/26/2020 20:48:35 -79.90, -51.99 79.18 1.07 71
5 02/29/2020 11:25:10 -79.59, 86.27 79.64 02/29/2020 11:24:11 -79.59, 86.36 79.61 1.75 59
6 02/29/2020 12:14:31 79.76,-104.78 100.08 02/29/2020 12:14:50 79.77,-104.79 100.07 0.36 19
7 03/03/2020 03:41:39 -79.60,-157.77 80.69 03/03/2020 03:41:06 -79.59,-157.87 80.65 2.03 33
8 03/03/2020 04:30:57 79.88, 12.01 98.87 03/03/2020 04:31:41 79.89, 12.13 98.82 2.41 44
9 03/05/2020 19:58:05 -79.75, -40.77 81.96 03/05/2020 19:57:57 -79.75, -40.71 81.97 1.19 8




NCC Satellite Simultaneous Nadir Overpasses (SNOs) Prediction Service
